STARLINK-31469

decayed
NORAD ID: 59311 Int'l Des: 2024-056 Owner: SPXS Country: US Constellation: starlink
LEOCIRCULAR
Group

About STARLINK-31469

Description loading...

Altitude History

Altitude vs Time

uPlot chart will show altitude changes over time

Two-Line Element Set

1 59311U 24056R 24164.60188010 .05608198 92501-5 88983-3 0 9995
2 59311 42.9803 229.5308 0006713 4.1940 117.1781 16.32721228 13982
Epoch: Jun 12, 2024 • Age: 11067 hours

Current Status

Position data unavailable
Launch Date Mar 24, 2024
Age 1.4 years
Decay Date Jun 12, 2024
Type internet

Technical Details

Classification Payload
Mass 730.00 kg
Dry Mass 700.00 kg
Total Mass 730.00 kg
Length 0.30 m
Diameter 4.10 m
Span 29.00 m
Shape Box + pan
Manufacturer SPXS
Bus Type Starlink V2M
Phase Status Unknown Transfer Status
Owner/State SPXS/US

Large Constellations

Loading constellations...